Regional Weather Roundup
Issued by NWS Upton, NY

Current Version | Previous Version | Graphics & Text | Print | Product List | Glossary Off
Versions: 1 2 3 4 5 6 7 8 9 10 11 12 13 14 15 16 17 18 19 20 21 22 23 24 25 26 27 28 29 30 31 32 33 34 35 36 37 38 39 40 41 42 43 44 45 46 47 48 49 50

805
ASUS41 KOKX 080904
RWROKX

REGIONAL WEATHER ROUNDUP
NATIONAL WEATHER SERVICE NEW YORK NY
400 AM EST MON FEB 08 2016

NOTE: "FAIR" INDICATES FEW OR NO CLOUDS BELOW 12,000 FEET WITH NO
SIGNIFICANT WEATHER AND/OR OBSTRUCTIONS TO VISIBILITY.

NYZ071-072-176-178-NJZ106-104-081000-
NEW YORK CITY METRO AREA


CITY           SKY/WX    TMP DP  RH WIND       PRES   REMARKS
CENTRAL PARK   CLOUDY    38  26  62 NE16G25   29.76F WCI  29
LAGUARDIA APRT CLOUDY    38  28  67 NE14G24   29.74F WCI  30
KENNEDY INTL   CLOUDY    38  28  67 NE25G33   29.74F WCI  27
NEWARK/LIBERTY CLOUDY    37  27  67 N18G25    29.75F WCI  27
BRNX BOT. GARD   N/A     36  27  69 NE9       29.76F WCI  29
TETERBORO      CLOUDY    37  25  61 N12       29.75F WCI  29
$$

NYZ177-179-078>081-081000-
LONG ISLAND NEW YORK

CITY           SKY/WX    TMP DP  RH WIND       PRES   REMARKS
FARMINGDALE    CLOUDY    38  29  70 NE16      29.72F WCI  29
ISLIP          CLOUDY    37  29  72 NE22G32   29.70F WCI  26
SHIRLEY        CLOUDY    38  30  73 N10G21    29.72F WCI  31
RIVERHEAD        N/A     37  30  75 E7        29.71F WCI  32
WESTHAMPTON    CLOUDY    39  30  70 NE21G32   29.72F WCI  29
EAST HAMPTON   CLOUDY    38  30  73 NE14G33   29.73F WCI  29
MONTAUK POINT    N/A     39  30  70 NE22G39   29.72F WCI  29
$$

NYZ052-065-067-081000-
HUDSON VALLEY

CITY           SKY/WX    TMP DP  RH WIND       PRES   REMARKS
WHITE PLAINS   CLOUDY    36  26  67 NE10G21   29.74F WCI  28
NEWBURGH       NOT AVBL
MONTGOMERY     CLOUDY    33  23  66 NE12      29.78F WCI  24
POUGHKEEPSIE   CLOUDY    34  24  67 N6        29.80F WCI  29
ALBANY         CLOUDY    27  19  72 N5        29.88F WCI  22
$$

NJZ001-105-106-008-010-013-015-019>022-104-081000-
NEW JERSEY

CITY           SKY/WX    TMP DP  RH WIND       PRES   REMARKS
NEWARK/LIBERTY CLOUDY    37  27  67 N18G25    29.75F WCI  27
TETERBORO      CLOUDY    37  25  61 N12       29.75F WCI  29
CALDWELL       CLOUDY    36  24  62 NE9       29.77F WCI  29
MORRISTOWN     CLOUDY    36  23  60 NE12G17   29.77F WCI  27
SOMERVILLE     MOCLDY    38  22  52 NE10G18   29.73F WCI  31
SUSSEX         CLOUDY    34  22  61 NE9       29.76F WCI  27
ANDOVER          N/A     32  22  66 N5        29.76F WCI  27
TRENTON        CLOUDY    36  22  56 NE12G22   29.71F WCI  28
MILLVILLE      CLOUDY    38  27  64 N12G23    29.68S WCI  30
ATLANTIC CITY  CLOUDY    39  30  70 NE18G26   29.66R WCI  30
WRIGHTSTOWN    CLOUDY    37  30  77 NE17      29.68F WCI  27
TOMS RIVER     CLOUDY    37  27  65 NE18G26   29.70S WCI  27
BELMAR         CLOUDY    37  25  60 NE17G23   29.70F WCI  28
$$

PAZ047>061-062-071-081000-
EASTERN PENNSYLVANIA

CITY           SKY/WX    TMP DP  RH WIND       PRES   REMARKS
PHILADELPHIA   CLOUDY    39  20  46 NE21G28   29.72F WCI  29
ALLENTOWN      CLOUDY    36  21  54 NE12      29.76F WCI  28
SCRANTON       CLOUDY    33  21  61 NE6       29.76F WCI  28
$$

CTZ002-004>006-009-010-012-RIZ004-006-007-MAZ004-011-015-081000-
SOUTHERN NEW ENGLAND
 IN CT

CITY           SKY/WX    TMP DP  RH WIND       PRES   REMARKS
BRADLEY INTL   CLOUDY    36  27  69 NE18G26   29.82F WCI  26
HARTFORD       CLOUDY    37  27  67 N20G26    29.81F WCI  27
DANBURY        CLOUDY    35  25  66 NE12G25   29.77F WCI  27
WTRBRY/OXFORD  CLOUDY    34  19  55 NE10G25   29.76F WCI  26
BRIDGEPORT     CLOUDY    37  28  70 NE21      29.77F WCI  26
MERIDEN        CLOUDY    36  27  69 N6G20     29.79F WCI  31
NEW HAVEN      CLOUDY    36  28  73 N15G22    29.76F WCI  27
CHESTER        CLOUDY    36  30  80 NE16G24   29.76F WCI  26
GROTON         CLOUDY    37  31  78 NE17G32   29.74F WCI  27
WILLIMANTIC    CLOUDY    37  27  67 NE21G35   29.79F WCI  26

 IN RI

CITY           SKY/WX    TMP DP  RH WIND       PRES   REMARKS
PROVIDENCE       N/A     36  27  69 NE35G46   29.81F WCI  22
BLOCK ISLAND   CLOUDY    37  30  75 NE33G41   29.71F WCI  24
WESTERLY       CLOUDY    37  28  70 NE14G28   29.75F WCI  28

 IN MA

CITY           SKY/WX    TMP DP  RH WIND       PRES   REMARKS
BOSTON         CLOUDY    34  26  72 NE29G45   29.90F WCI  20
WORCESTER      CLOUDY    30  23  75 NE17G31   29.82F WCI  18
WESTFIELD      CLOUDY    34  26  72 NE13G21   29.85F WCI  25
PROVINCETOWN   CLOUDY    36  27  69 NE31G41   29.85F WCI  23
NANTUCKET      LGT SNOW  36  32  85 NE36G48   29.69F FOG     WCI  22
$$

ANZ330-335-338-340-345-350-353-355-081000-
COASTAL MARINE OBSERVATIONS


STATION/POSITION TIME  SKY/WX   TEMP    WIND        PRES    VSBY  WAVE
                                AIR SEA DIR/SP/G                  HT/PER
                 (UTC)          (F)     (DEG/KT/KT) (MB)    (MI)  (FT/S)
NY HARB ENTRANCE 0750            40 44   30/ 25/ 31 1005.8          7/ 7
4S FIRE IS       NOT AVBL
20S FIRE ISLAND  0750            41 44   30/ 27/ 33 1004.5         11/ 7
GREAT SOUTH BAY  NOT AVBL
23SW MTP         0850            39 45   50/ 35/ 43 1003.3         13/ 7
HUDSON CANYON    0750            41 50              1000.8         14/ 8
KINGS POINT      0800            38 39   70/ 13/ 19 1007.6
EXECUTION ROCKS  NOT AVBL
CENTRAL LI SOUND 0800            39      40/ 19/ 25   N/A           3/ 5
EASTERN LI SOUND 0800            40 42   50/ 21/ 29   N/A
ROBBINS REEF     0800            39      30/ 21/ 33 1006.9
$$


>>>>>>>>>>>>>>>>>>>>>>>>>>>> KEY <<<<<<<<<<<<<<<<<<<<<<<<<<<
>                                                          <
>     SKY/WX - SKY CONDITION/PRESENT WEATHER               <
>     TMP    - TEMPERATURE IN FAHRENHEIT                   <
>     DP     - DEWPOINT IN FAHRENHEIT                      <
>     RH     - RELATIVE HUMIDITY IN PERCENT                <
>     WIND   - DIRECTION AND SPEED IN MPH                  <
>     PRES   - MEAN SEA LEVEL PRESSURE IN INCHES OF HG     <
>     WCI    - WIND CHILL INDEX                            <
>     VSB    - VISIBILITY IN MILES                         <
>     HX     - HEAT INDEX                                  <
>     TC     - TEMPERATURE IN CELSIUS                      <
>     VRB    - VARIABLE WIND DIRECTION                     <
>                                                          <
>>>>>>>>>>>>>>>>>>>>>>>>>>>> KEY <<<<<<<<<<<<<<<<<<<<<<<<<<<






USA.gov is the U.S. government's official web portal to all federal, state and local government web resources and services.